Afton Municipal Airport, WY

4:15 PM MST on November 20, 2019 (GMT -0700)
Afton Municipal

Weather History for KAFO - September, 2019

Change the Weather History Date:

Thursday, September 26, 2019

  Actual Average Record
Temperature  
Mean Temperature 50 °F -  
Max Temperature 69 °F 68 °F 78 °F (2015)
Min Temperature 30 °F 29 °F 21 °F (2018)
Degree Days  
Heating Degree Days 16    
Moisture  
Dew Point 34 °F    
Average Humidity 61    
Maximum Humidity 100    
Minimum Humidity 25    
Precipitation  
Precipitation 0.00 in - - ()
Sea Level Pressure  
Sea Level Pressure 30.04 in    
Wind  
Wind Speed 3 mph ()    
Max Wind Speed 15 mph    
Max Gust Speed 21 mph    
Visibility 10.0 miles    
Events      
Averages and records for this station are not official NWS values.
T = Trace of Precipitation, MM = Missing Value Source: Averaged Metar Reports

Daily Weather History Graph

Daily Weather History Graph

Search for Another Location

Airport or City:

Astronomy

Sep. 26, 2019 Rise Set
Actual Time 7:15 AM MDT 7:14 PM MDT
Civil Twilight 6:47 AM MDT 7:42 PM MDT
Nautical Twilight 6:14 AM MDT 8:15 PM MDT
Astronomical Twilight 5:40 AM MDT 8:48 PM MDT
Moon 4:20 AM MDT (9/26) 6:34 PM MDT (9/26)
Length of Visible Light 12h 55m
Length of Day
11h 58m
Waning Crescent, 6% of the Moon is Illuminated
Sep 26
Waning Crescent
Sep 28
New
Oct 5
First Quarter
Oct 13
Full
Oct 21
Last Quarter

Hourly Weather History & Observations

Time (MDT) Temp. Windchill Dew Point Humidity Pressure Visibility Wind Dir Wind Speed Gust Speed Precip Events Conditions
12:15 AM 39.2 °F - 33.8 °F 81% 30.19 in 10.0 mi Calm Calm - N/A   Clear
12:35 AM 37.4 °F - 33.8 °F 87% 30.20 in 10.0 mi Calm Calm - N/A   Clear
12:55 AM 37.4 °F - 33.8 °F 87% 30.20 in 10.0 mi Calm Calm - N/A   Clear
1:15 AM 35.6 °F 30.7 °F 32.0 °F 87% 30.20 in 10.0 mi SSE 5.8 mph - N/A   Clear
1:35 AM 35.6 °F - 32.0 °F 87% 30.20 in 10.0 mi Calm Calm - N/A   Clear
1:55 AM 35.6 °F 32.8 °F 32.0 °F 87% 30.19 in 10.0 mi South 3.5 mph - N/A   Clear
2:15 AM 33.8 °F - 32.0 °F 93% 30.19 in 10.0 mi Calm Calm - N/A   Clear
2:35 AM 35.6 °F - 32.0 °F 87% 30.19 in 10.0 mi Calm Calm - N/A   Clear
2:55 AM 35.6 °F - 32.0 °F 87% 30.19 in 10.0 mi Calm Calm - N/A   Clear
3:15 AM 33.8 °F - 32.0 °F 93% 30.18 in 10.0 mi Calm Calm - N/A   Clear
3:35 AM 33.8 °F - 32.0 °F 93% 30.18 in 10.0 mi Calm Calm - N/A   Clear
3:55 AM 33.8 °F - 32.0 °F 93% 30.17 in 10.0 mi Calm Calm - N/A   Clear
4:15 AM 33.8 °F - 30.2 °F 87% 30.17 in 10.0 mi Calm Calm - N/A   Clear
4:35 AM 32.0 °F - 32.0 °F 100% 30.16 in 10.0 mi Calm Calm - N/A   Clear
4:55 AM 32.0 °F - 30.2 °F 93% 30.15 in 10.0 mi Calm Calm - N/A   Clear
5:15 AM 32.0 °F - 32.0 °F 100% 30.15 in 10.0 mi Calm Calm - N/A   Clear
5:55 AM 32.0 °F 28.7 °F 30.2 °F 93% 30.15 in 10.0 mi South 3.5 mph - N/A   Clear
6:15 AM 32.0 °F - 32.0 °F 100% 30.14 in 10.0 mi Calm Calm - N/A   Clear
6:35 AM 32.0 °F 27.5 °F 28.4 °F 87% 30.14 in 10.0 mi South 4.6 mph - N/A   Clear
6:55 AM 32.0 °F 28.7 °F 30.2 °F 93% 30.13 in 10.0 mi South 3.5 mph - N/A   Clear
7:15 AM 32.0 °F - 30.2 °F 93% 30.13 in 10.0 mi Calm Calm - N/A   Clear
7:35 AM 32.0 °F - 30.2 °F 93% 30.12 in 10.0 mi Calm Calm - N/A   Clear
7:55 AM 30.2 °F 26.7 °F 30.2 °F 100% 30.12 in 10.0 mi NNW 3.5 mph - N/A   Clear
8:15 AM 30.2 °F - 28.4 °F 93% 30.12 in 10.0 mi Calm Calm - N/A   Clear
8:35 AM 33.8 °F - 32.0 °F 93% 30.12 in 10.0 mi Calm Calm - N/A   Clear
8:55 AM 35.6 °F - 32.0 °F 87% 30.13 in 10.0 mi Calm Calm - N/A   Clear
9:15 AM 39.2 °F - 33.8 °F 81% 30.13 in 10.0 mi Calm Calm - N/A   Clear
9:35 AM 42.8 °F - 33.8 °F 70% 30.11 in 10.0 mi Calm Calm - N/A   Clear
9:55 AM 44.6 °F - 33.8 °F 66% 30.11 in 10.0 mi Calm Calm - N/A   Clear
10:15 AM 46.4 °F - 35.6 °F 66% 30.12 in 10.0 mi Calm Calm - N/A   Clear
10:35 AM 48.2 °F - 37.4 °F 66% 30.11 in 10.0 mi Calm Calm - N/A   Clear
10:55 AM 53.6 °F - 37.4 °F 54% 30.08 in 10.0 mi Calm Calm - N/A   Clear
11:15 AM 55.4 °F - 37.4 °F 51% 30.07 in 10.0 mi Calm Calm - N/A   Clear
11:35 AM 59.0 °F - 39.2 °F 48% 30.07 in 10.0 mi Calm Calm - N/A   Clear
11:55 AM 62.6 °F - 32.0 °F 32% 30.05 in 10.0 mi East 3.5 mph - N/A   Clear
12:15 PM 62.6 °F - 33.8 °F 34% 30.04 in 10.0 mi NNW 3.5 mph - N/A   Clear
12:35 PM 64.4 °F - 32.0 °F 30% 30.03 in 10.0 mi South 4.6 mph - N/A   Clear
12:55 PM 64.4 °F - 32.0 °F 30% 30.02 in 10.0 mi SSW 4.6 mph - N/A   Clear
1:15 PM 68.0 °F - 32.0 °F 26% 30.01 in 10.0 mi SSW 13.8 mph 17.3 mph N/A   Clear
1:35 PM 68.0 °F - 32.0 °F 26% 30.00 in 10.0 mi SSW 9.2 mph - N/A   Clear
1:55 PM 68.0 °F - 32.0 °F 26% 29.99 in 10.0 mi SSW 10.4 mph 16.1 mph N/A   Clear
2:35 PM 68.0 °F - 32.0 °F 26% 29.97 in 10.0 mi SSW 8.1 mph - N/A   Clear
2:55 PM 69.8 °F - 32.0 °F 25% 29.96 in 10.0 mi WSW 6.9 mph 20.7 mph N/A   Clear
3:15 PM 69.8 °F - 32.0 °F 25% 29.95 in 10.0 mi West 12.7 mph 20.7 mph N/A   Clear
3:35 PM 68.0 °F - 32.0 °F 26% 29.95 in 10.0 mi WNW 10.4 mph 18.4 mph N/A   Clear
3:55 PM 66.2 °F - 33.8 °F 30% 29.94 in 10.0 mi WSW 11.5 mph 16.1 mph N/A   Clear
4:15 PM 68.0 °F - 33.8 °F 28% 29.94 in 10.0 mi WSW 8.1 mph 11.5 mph N/A   Clear
4:35 PM 68.0 °F - 33.8 °F 28% 29.93 in 10.0 mi WSW 15.0 mph - N/A   Clear
4:55 PM 68.0 °F - 35.6 °F 30% 29.93 in 10.0 mi WSW 13.8 mph - N/A   Clear
5:15 PM 68.0 °F - 35.6 °F 30% 29.92 in 10.0 mi WSW 9.2 mph - N/A   Clear
5:35 PM 66.2 °F - 35.6 °F 32% 29.92 in 10.0 mi West 6.9 mph - N/A   Clear
5:55 PM 64.4 °F - 35.6 °F 34% 29.92 in 10.0 mi WSW 6.9 mph 11.5 mph N/A   Clear
6:15 PM 64.4 °F - 35.6 °F 34% 29.92 in 10.0 mi SW 8.1 mph - N/A   Clear
6:35 PM 59.0 °F - 37.4 °F 45% 29.91 in 10.0 mi SW 11.5 mph 16.1 mph N/A   Clear
6:55 PM 60.8 °F - 35.6 °F 39% 29.91 in 10.0 mi SW 6.9 mph - N/A   Clear
7:15 PM 59.0 °F - 35.6 °F 42% 29.92 in 10.0 mi SSW 5.8 mph - N/A   Clear
7:35 PM 59.0 °F - 35.6 °F 42% 29.91 in 10.0 mi SSW 10.4 mph - N/A   Clear
7:55 PM 57.2 °F - 35.6 °F 44% 29.92 in 10.0 mi South 9.2 mph - N/A   Clear
8:15 PM 53.6 °F - 35.6 °F 51% 29.91 in 10.0 mi SSE 9.2 mph - N/A   Clear
8:35 PM 57.2 °F - 35.6 °F 44% 29.90 in 10.0 mi South 10.4 mph - N/A   Scattered Clouds
8:55 PM 57.2 °F - 35.6 °F 44% 29.90 in 10.0 mi South 6.9 mph - N/A   Scattered Clouds
9:15 PM 59.0 °F - 33.8 °F 39% 29.90 in 10.0 mi South 8.1 mph - N/A   Scattered Clouds
9:35 PM 53.6 °F - 37.4 °F 54% 29.91 in 10.0 mi SSW 8.1 mph - N/A   Mostly Cloudy
9:55 PM 51.8 °F - 39.2 °F 62% 29.92 in 10.0 mi SW 6.9 mph - N/A   Overcast
10:15 PM 53.6 °F - 37.4 °F 54% 29.90 in 10.0 mi South 5.8 mph - N/A   Overcast
10:55 PM 55.4 °F - 35.6 °F 47% 29.90 in 10.0 mi South 8.1 mph - N/A   Overcast
11:15 PM 55.4 °F - 37.4 °F 51% 29.90 in 10.0 mi South 6.9 mph - N/A   Overcast
11:35 PM 53.6 °F - 37.4 °F 54% 29.90 in 10.0 mi SW 4.6 mph - N/A   Overcast
11:55 PM 53.6 °F - 37.4 °F 54% 29.90 in 10.0 mi Calm Calm - N/A   Overcast